Miscellaneous Local Product
Issued by NWS Hastings, NE

Home | Current Version | Previous Version | Text Only | Print | Product List | Glossary Off
Versions: 1 2 3 4 5 6 7 8 9 10 11 12 13 14 15 16 17 18 19 20 21 22 23 24 25 26 27 28 29 30 31 32 33 34 35 36 37 38 39 40 41 42 43 44 45 46 47 48 49 50

000
AXUS43 KGID 201302
MISGRI

GID CWA HOURLY WEATHER ROUNDUP
NATIONAL WEATHER SERVICE HASTINGS NE
800 AM CDT WED AUG 20 2014

NOTE: "FAIR" INDICATES FEW OR NO CLOUDS BELOW 12,000 FEET WITH NO
SIGNIFICANT WEATHER AND/OR OBSTRUCTIONS TO VISIBILITY.

...SOUTH CENTRAL NEBRASKA...

CITY           SKY/WX    TMP DP  RH WIND       PRES   REMARKS
GRAND ISLAND   PTSUNNY   74  64  71 S12       29.77R
HASTINGS       PTSUNNY   71  62  73 S9        29.79R
KEARNEY        PTSUNNY   72  64  78 S14       29.77S
ORD            PTSUNNY   70  67  90 SE6       29.75R
AURORA         PTSUNNY   74  67  79 S9        29.78R
LEXINGTON      PTSUNNY   73  67  81 S7        29.76F
HOLDREGE       MOSUNNY   73  63  70 S10       29.78S
HEBRON         MOSUNNY   72  63  73 S6        29.81R

...NEBRASKA PANHANDLE...

CITY           SKY/WX    TMP DP  RH WIND       PRES   REMARKS
CHADRON        CLOUDY    72  53  51 SW5       29.78R
ALLIANCE       CLOUDY    64  57  78 CALM      29.81F
SCOTTSBLUFF    MOCLDY    64  60  87 CALM      29.83S
SIDNEY         MOCLDY    64  57  78 NW5       29.86S

...WESTERN AND NORTH CENTRAL NEBRASKA...

CITY           SKY/WX    TMP DP  RH WIND       PRES   REMARKS
VALENTINE      MOSUNNY   64  63  96 NE3       29.77R
AINSWORTH      MOSUNNY   66  65  98 NE6       29.77S FOG
ONEILL         CLOUDY    71  69  94 E6        29.78S
BROKEN BOW     MOSUNNY   72  66  81 S3        29.76R
IMPERIAL       MOCLDY    67  63  87 CALM      29.79S
NORTH PLATTE   PTSUNNY   73  63  70 VRB3      29.77R
MCCOOK         CLOUDY    74  64  71 S9        29.77S

...EASTERN NEBRASKA...

CITY           SKY/WX    TMP DP  RH WIND       PRES   REMARKS
NORFOLK        CLOUDY    70  66  87 SE12      29.80R
SO SIOUX CITY  CLOUDY    70  66  87 S9        29.77F
TEKAMAH        CLOUDY    72  68  87 SE5       29.82R
COLUMBUS       CLOUDY    72  66  83 E6        29.82R
ALBION         CLOUDY    71  66  84 E5        29.79R
OMAHA EPPLEY   CLOUDY    74  67  78 NE7       29.82R
OFFUTT AFB     CLOUDY    74  74 100 N10       29.82R
MILLARD        CLOUDY    76  70  81 N3        29.82R
LINCOLN        PTSUNNY   77  66  68 S7        29.79R
NEBRASKA CITY  CLOUDY    74  68  81 SW6       29.81S
BEATRICE       MOSUNNY   74  68  81 S7        29.82S
FALLS CITY     PTSUNNY   73  69  87 S5        29.82R

...NORTHERN KANSAS...

CITY           SKY/WX    TMP DP  RH WIND       PRES   REMARKS
GOODLAND       PTCLDY    69  60  73 S13       29.82S
HILL CITY      MOSUNNY   73  63  70 VRB6      29.79F
NORTON         SUNNY     73  61  64 E3        29.78S
PHILLIPSBURG   SUNNY     72  63  73 SE6       29.79R
SMITH CENTER   SUNNY     72  63  73 SE7       29.80R
BELOIT         SUNNY     72  64  78 SE6       29.80R
HAYS           SUNNY     72  61  68 S9        29.81F
RUSSELL        SUNNY     72  64  76 S8        29.80S
CONCORDIA      SUNNY     73  67  81 CALM      29.82R
SALINA         SUNNY     75  67  76 S10       29.82R
TOPEKA         MOSUNNY   77  71  82 S5        29.86R



USA.gov is the U.S. government's official web portal to all federal, state and local government web resources and services.